FW0887 Weather Reports


time (UTC)temp
C
wind
direction
speed
KPH
gust
KPH
rain 1hr
cm
rain 24hr
cm
rain mn
cm
humidity
%
barometer
mb
20260505173042 13 360 1.6 11.3 2.08 2.08 2.08 83 1006.0
20260505172145 17 225 6.4 9.7 0.00 0.00 0.00 73 1006.7
20260505171543 16 212 8.0 30.6 0.33 0.33 0.33 76 1006.0
20260505170031 18 269 8.0 25.7 0.00 0.00 0.00 66 1004.8
20260505164530 20 319 0.0 8.0 0.00 0.00 0.00 63 1003.2
20260505163029 21 51 1.6 8.0 0.00 0.00 0.00 62 1003.2
20260505162117 22 23 4.8 8.0 0.00 0.00 0.00 58 1004.7
20260505161529 21 319 3.2 9.7 0.00 0.00 0.00 58 1003.3
20260505153027 23 282 4.8 14.5 0.00 0.00 0.00 54 1003.2
20260505152047 23 68 6.4 11.3 0.00 0.00 0.00 53 1004.9
20260505151531 23 317 3.2 12.9 0.00 0.00 0.00 55 1003.4
20260505124514 25 194 0.0 4.8 0.00 0.00 0.00 41 1004.6
20260505123012 26 265 1.6 11.3 0.00 0.00 0.00 43 1004.7
20260505122155 25 338 1.6 3.2 0.00 0.00 0.00 47 1006.6
20260505121509 25 70 3.2 8.0 0.00 0.00 0.00 45 1004.9
20260505120021 25 123 3.2 6.4 0.00 0.00 0.00 39 1005.1
20260505114504 25 292 3.2 11.3 0.00 0.00 0.00 45 1005.3
20260505113002 24 213 1.6 6.4 0.00 0.00 0.00 44 1005.4
20260505112021 24 180 3.2 3.2 0.00 0.00 0.00 44 1007.4
20260505111558 23 173 1.6 4.8 0.00 0.00 0.00 43 1005.6
20260505101750 23 225 4.8 6.4 0.00 0.00 0.00 55 1007.9
20260505101552 22 215 3.2 9.7 0.00 0.00 0.00 54 1006.2
20260505100049 22 227 3.2 9.7 0.00 0.00 0.00 53 1006.4
20260505094546 22 229 3.2 8.0 0.00 0.00 0.00 54 1006.3
20260505093045 22 244 1.6 8.0 0.00 0.00 0.00 58 1006.5
20260505092143 22 0.0 1.6 0.00 0.00 0.00 58 1008.4
20260505091543 22 41 0.0 4.8 0.00 0.00 0.00 59 1006.7
20260505090045 22 251 3.2 6.4 0.00 0.00 0.00 60 1006.8
20260505084537 21 323 1.6 6.4 0.00 0.00 0.00 60 1007.0
20260505083033 21 334 1.6 11.3 0.00 0.00 0.00 60 1007.0
20260505082016 21 0.0 1.6 0.00 0.00 0.00 60 1008.7
20260505081538 21 9 0.0 3.2 0.00 0.00 0.00 62 1007.1
20260505080036 20 53 1.6 4.8 0.00 0.00 0.00 62 1007.3
20260505074525 20 25 0.0 3.2 0.00 0.00 0.00 64 1007.5
20260505073037 19 300 0.0 6.4 0.00 0.00 0.00 66 1007.6
20260505071947 18 0 1.6 4.8 0.00 0.00 0.00 67 1009.2
20260505071520 18 333 1.6 6.4 0.00 0.00 0.00 65 1007.6
20260505070015 17 279 1.6 6.4 0.00 0.00 0.00 68 1007.8
20260505064531 17 281 0.0 4.8 0.00 0.00 0.00 69 1007.8
20260505063012 17 57 0.0 3.2 0.00 0.00 0.00 69 1007.9
20260505061931 17 0 1.6 3.2 0.00 0.00 0.00 71 1009.6
20260505061524 17 328 0.0 3.2 0.00 0.00 0.00 71 1008.0
20260505060007 16 53 0.0 6.4 0.00 0.00 0.00 72 1008.1
20260505054506 15 64 0.0 4.8 0.00 0.00 0.00 75 1008.1
20260505053005 14 63 1.6 4.8 0.00 0.00 0.00 77 1008.1
20260505052023 14 68 1.6 3.2 0.00 0.00 0.00 78 1009.4
20260505051506 13 30 1.6 6.4 0.00 0.00 0.00 78 1008.1
20260505041601 13 110 0.0 1.6 0.00 0.00 0.00 76 1008.3
20260505040058 13 36 0.0 3.2 0.00 0.00 0.00 76 1008.3
20260505034557 14 34 3.2 6.4 0.00 0.00 0.00 75 1008.1
20260505033054 14 52 0.0 0.0 0.00 0.00 0.00 75 1008.4
20260505031939 15 45 1.6 3.2 0.00 0.00 0.00 75 1009.9
20260505031607 14 52 0.0 3.2 0.00 0.00 0.00 75 1008.3
20260505030052 14 52 0.0 3.2 0.00 0.00 0.00 75 1008.5
20260505024552 14 52 0.0 3.2 0.00 0.00 0.00 75 1008.6
20260505023105 14 52 0.0 3.2 0.00 0.00 0.00 75 1008.9
20260505021845 14 45 1.6 3.2 0.00 0.00 0.00 75 1010.5
20260505021548 14 52 0.0 3.2 0.00 0.00 0.00 75 1008.9
20260505020047 14 51 1.6 4.8 0.00 0.00 0.00 75 1009.0
20260505014546 14 198 0.0 0.0 0.00 0.00 0.00 75 1009.2
20260505013052 15 198 1.6 3.2 0.00 0.00 0.00 74 1009.3
20260505012007 15 0.0 0.0 0.00 0.00 0.00 71 1010.5
20260505011541 15 205 1.6 6.4 0.00 0.00 0.00 73 1009.2
20260505010038 15 329 0.0 4.8 0.00 0.00 0.00 71 1009.0
20260505004546 15 75 0.0 1.6 0.00 0.00 0.00 69 1009.2
20260505003035 15 75 0.0 1.6 0.00 0.00 0.00 67 1009.3
20260505001946 16 0.0 0.0 0.00 0.00 0.00 67 1011.0
20260505001533 15 75 0.0 1.6 0.00 0.00 0.00 67 1009.5
20260505000047 15 76 0.0 0.0 0.00 0.00 0.00 67 1009.6
20260504234530 15 76 0.0 0.0 0.00 0.00 0.00 67 1009.7
20260504233028 16 76 0.0 3.2 0.00 0.00 0.00 67 1009.8
20260504231857 16 0.0 0.0 0.00 0.00 0.00 64 1011.4
20260504231530 16 76 0.0 1.6 0.00 0.00 0.00 67 1009.9
20260504230025 16 76 0.0 3.2 0.00 0.00 0.00 64 1010.0
20260504224522 16 76 0.0 0.0 0.00 0.00 0.00 65 1010.1
20260504223022 16 76 0.0 0.0 0.00 0.00 0.00 64 1010.2
20260504221933 16 0.0 0.0 0.00 0.00 0.00 64 1011.7
20260504221520 16 76 0.0 0.0 0.00 0.00 0.00 64 1010.3
20260504220019 16 76 0.0 0.0 0.00 0.00 0.00 64 1010.3
20260504214519 16 76 0.0 0.0 0.00 0.00 0.00 64 1010.3
20260504213018 16 76 0.0 0.0 0.00 0.00 0.00 64 1010.4
20260504211908 17 0.0 0.0 0.00 0.00 0.00 63 1011.7
20260504211518 16 76 0.0 0.0 0.00 0.00 0.00 64 1010.4
20260504210022 16 77 0.0 0.0 0.00 0.00 0.00 62 1010.5
20260504204517 17 77 0.0 0.0 0.00 0.00 0.00 61 1010.6
20260504203016 17 77 0.0 0.0 0.00 0.00 0.00 63 1010.6
20260504201840 18 0.0 0.0 0.00 0.00 0.00 58 1011.9
20260504201515 17 77 0.0 0.0 0.00 0.00 0.00 60 1010.7
20260504200015 17 77 0.0 0.0 0.00 0.00 0.00 57 1010.6
20260504194515 18 76 0.0 0.0 0.00 0.00 0.00 57 1010.6
20260504193015 18 76 0.0 0.0 0.00 0.00 0.00 56 1010.6
20260504191823 19 0.0 1.6 0.00 0.00 0.00 54 1011.8
20260504191514 18 76 0.0 1.6 0.00 0.00 0.00 55 1010.5
20260504190014 18 76 3.2 4.8 0.00 0.00 0.00 53 1010.5
20260504184515 19 27 0.0 1.6 0.00 0.00 0.00 55 1010.4
20260504183013 20 27 0.0 3.2 0.00 0.00 0.00 53 1010.4
20260504181919 20 23 1.6 3.2 0.00 0.00 0.00 51 1011.5
20260504181512 20 27 0.0 3.2 0.00 0.00 0.00 52 1010.4
20260504180012 21 27 0.0 3.2 0.00 0.00 0.00 50 1010.4
20260504174511 21 321 0.0 3.2 0.00 0.00 0.00 45 1010.3